Regional Weather Roundup
Issued by NWS Austin/San Antonio, TX

Home | Current Version | Previous Version | Text Only | Print | Product List | Glossary On
Versions: 1 2 3 4 5 6 7 8 9 10 11 12 13 14 15 16 17 18 19 20 21 22 23 24 25 26 27 28 29 30 31 32 33 34 35 36 37 38 39 40 41 42 43 44 45 46 47 48 49 50
000
ASUS44 KEWX 140301
RWREWX
SOUTH TEXAS REGIONAL WEATHER ROUNDUP
NATIONAL WEATHER SERVICE AUSTIN/SAN ANTONIO TX
900 PM CST WED DEC 13 2017

NOTE: "FAIR" INDICATED FEW OR NO CLOUDS BELOW 12,000 FEET WITH NO
SIGNIFICANT WEATHER AND/OR OBSTRUCTIONS TO VISIBILITY.

* - THESE STATIONS ARE NOT NWS OR FAA STATIONS...AND ARE NOT SUBJECT
    TO NWS AND FAA QUALITY CONTROL.

TXZ171-172-183>190-140400-
TEXAS HILL COUNTRY AND EDWARDS PLATEAU

CITY           SKY/WX    TMP DP  RH WIND       PRES   REMARKS
JUNCTION       CLOUDY    50  33  52 CALM      29.96S
*LLANO         CLOUDY    41  32  70 CALM      29.99S
BURNET         CLOUDY    47  33  58 CALM      29.98S
*HORSESHOE BAY CLOUDY    44  36  73 CALM      29.97R
*KERRVILLE     PTCLDY    49  35  58 SE6       29.97S WCI  46
*FREDERICKSBRG CLOUDY    42  32  68 CALM      29.96S
*ROCKSPRINGS   NOT AVBL
*BOERNE STAGE  CLOUDY    52  34  50 SW6       29.99S
*CASTROVILLE   CLOUDY    52  37  56 W3        30.01S
HONDO          PTCLDY    51  39  63 W3        29.99F
*UVALDE        PTCLDY    47  41  77 CALM      30.01S
DEL RIO        CLOUDY    49  39  68 E5        29.98F WCI  47
LAUGHLIN AFB   MOCLDY    46  39  78 E5        29.98F WCI  43
CARRIZO SPRGS  PTCLDY    50  46  87 CALM      29.99S
*EAGLE PASS    CLEAR     46  39  76 SE5       29.99F WCI  44
$$

TXZ173-191>194-202-209-217>225-228-140400-
CENTRAL AND SOUTH CENTRAL TEXAS

CITY           SKY/WX    TMP DP  RH WIND       PRES   REMARKS
GEORGETOWN     CLOUDY    48  35  60 CALM      29.98S
AUSTIN/BERGSTM CLOUDY    44  36  73 CALM      29.98R
AUSTIN/MABRY   CLOUDY    50  36  58 CALM      29.98S
*AUSTIN/EXEC   CLOUDY    48  36  61 SW7       29.98S WCI  45
*LAGO VISTA    CLOUDY    53  36  52 W8        29.96F
SAN MARCOS     PTCLDY    48  36  63 S5        29.98F WCI  46
NEW BRAUNFELS  CLOUDY    50  37  61 SW5       29.97S WCI  48
RANDOLPH AFB   CLOUDY    55  35  48 SW7       29.98F
PT SAN ANTONIO CLOUDY    54  37  53 SW3       29.98S
SAN ANTONIO    CLOUDY    55  35  47 SW7       29.99F
STINSON FIELD  PTCLDY    54  37  52 CALM      29.98S
*LA GRANGE     CLOUDY    48  39  72 S3        29.97S
*GIDDINGS      CLOUDY    47  37  65 S3        29.98S
*GONZALES      CLOUDY    51  36  55 CALM      29.99S
$$

TXZ163>164-176>182-195>201-210>213-226-227-235-140400-
SOUTHEAST TEXAS

CITY           SKY/WX    TMP DP  RH WIND       PRES   REMARKS
COLLEGE STN    CLOUDY    48  36  63 S6        29.97F WCI  45
*BRYAN         CLOUDY    49  35  57 S3        29.99S
*CALDWELL      CLOUDY    48  36  62 S6        29.97F WCI  46
*CROCKETT        N/A     45  34  65 CALM      29.99F
*BRENHAM       CLOUDY    50  37  61 CALM      29.98F
HUNTSVILLE     CLOUDY    50  36  58 S8        29.97S WCI  47
CONROE         CLOUDY    43  40  89 CALM      29.99S
HOUSTON BUSH   CLOUDY    51  37  58 SW3       29.99F
HOUSTON HOBBY  CLOUDY    48  38  68 S5        29.99F WCI  46
*HOUSTON SW AP CLOUDY    43  39  86 CALM      30.01S
PEARLAND       CLOUDY    46  41  82 CALM      30.02F
HOUSTON HOOKS  CLOUDY    48  39  71 S3        29.99F
ELLINGTON FLD  CLOUDY    52  36  54 S3        30.02F
SUGAR LAND     CLOUDY    48  40  73 CALM      30.00F
*HOUSTON EXEC  NOT AVBL
*CLEVELAND MUN CLOUDY    40  38  91 CALM      30.01R
*WHARTON       CLOUDY    49  39  70 S5        30.02R WCI  47
*COLUMBUS      FAIR      45  39  79 CALM      30.01R
*EAGLE LAKE    CLOUDY    48  41  75 S6        29.99S WCI  46
$$

TXZ214>216-236>238-140400-
THE UPPER TEXAS COAST

CITY           SKY/WX    TMP DP  RH WIND       PRES   REMARKS
*ORANGE        CLOUDY    44  42  92 CALM      30.02F
PORT ARTHUR    CLOUDY    43  40  89 CALM      30.00F
GALVESTON      CLOUDY    54  45  71 SW3       30.01F
ANGLETON       CLOUDY    46  40  79 CALM      30.01F
*BAY CITY      CLOUDY    47  41  79 S3        30.00F
PALACIOS       CLOUDY    53  49  86 S3        30.02R
$$

TXZ229>234-239>247-140400-
TEXAS COASTAL BEND AND RIO GRANDE PLAINS

CITY           SKY/WX    TMP DP  RH WIND       PRES   REMARKS
VICTORIA       CLOUDY    50  42  74 S7        30.01R WCI  47
*BEEVILLE      CLOUDY    53  41  65 S3        30.00F
ROCKPORT       MOCLDY    51  45  79 S5        30.02R
*PORT ARANSAS  NOT AVBL
*PORT LAVACA   CLOUDY    51  45  80 S5        30.02R
*INGLESIDE     MOCLDY    52  47  83 CALM      30.02R
CORPUS CHRISTI MOCLDY    52  50  93 CALM      30.02R
CORPUS NAS     MOCLDY    57  51  80 W5        30.02S
*ROBSTOWN      MOCLDY    54  47  77 CALM      30.03R
ALICE          PTCLDY    49  42  77 S7        30.01F WCI  46
KINGSVILLE NAS CLOUDY    52  48  86 CALM      30.02S
COTULLA        PTCLDY    55  43  63 CALM      30.01R
*FAITH RANCH   CLEAR     52  41  66 SE7       30.00S
LAREDO         PTCLDY    56  42  59 MISG      30.00F
$$

TXZ248>255-140400-
DEEP SOUTH TEXAS

CITY           SKY/WX    TMP DP  RH WIND       PRES   REMARKS
BROWNSVILLE    CLOUDY    60  54  80 S3        30.03S
PORT ISABEL    CLOUDY    58  53  84 SE5       30.01F
*SOUTH PADRE   NOT AVBL
HARLINGEN      PTCLDY    57  50  77 S5        30.02R
*HEBBRONVILLE  PTCLDY    53  37  54 CALM      30.01F
MCALLEN        PTCLDY    61  46  57 E3        30.02R
*WESLACO       PTCLDY    59  47  63 S3        30.02R
FALFURRIAS     PTCLDY    54  41  61 CALM      30.01F
EDINBURG       CLOUDY    57  47  67 CALM      30.02S
*ZAPATA        CLOUDY    55  39  54 CALM      30.01R
$$

TXZ213>215-236>238-242>244-246-247-251-254-255-140400-
CMAN STATIONS

STATION/POSITION TIME  TEMP    WIND        PRES    WAVE
                       AIR SEA DIR/SP/G            HT/PER
                 (UTC) (F)     (DEG/KT/KT) (MB)    (FT/S)
SABINE PASS      0230   52 62  230/  2/  4 1017.8
SEA RIM ST PARK  0200   53     250/  6/  6 1016.8
NORTH JETTY/GLS  0224      61  240/  8/  9 1015.6
EAGLE POINT      0224   54 55  250/  5/  7 1016.3
MORGANS POINT    0230   54 57  230/  2/  3 1015.9
PORT O`CONNOR    0224   57 60  200/  4/  4 1015.8
MALAQUITE BEACH  0224   61 63  200/  6/  7 1016.1
BAFFIN BAY       0224   60 58  160/  5/  5 1016.5
PORT ISABEL      0224   62 61  140/  3/  5 1016.2
$$




USA.gov is the U.S. government's official web portal to all federal, state and local government web resources and services.